User: anonymous   Login
Location: Asarope
(8.2500°N, 4.4833°E)
Time: 13:22:15
(UTC+00:00)
Language:

OAO 3 Rocket - Orbit

View from above orbital plane
View from above orbital plane
View from above satellite
View from above satellite

Ground track
Ground track

The orbit data is extracted from the following two-line orbital elements,

1  6155U 72065B   20218.67312052 +.00000077 +00000-0 +15675-4 0  9998
2  6155 035.0045 315.7348 0038034 215.2167 144.6016 14.71595947539875
Epoch (UTC): 05 August 2020 16:09:17
Eccentricity: 0.0038034
inclination: 35.0045°
perigee height: 629 km
apogee height: 683 km
right ascension of ascending node: 315.7348°
argument of perigee: 215.2167°
revolutions per day: 14.71595947
mean anomaly at epoch: 144.6016°
orbit number at epoch: 53987

The dashed part of the orbit path shows where the satellite is in the earth's shadow,  

DLR